Greenwood, SC

4:37 PM EDT on May 29, 2017 (GMT -0400)
Greenwood County

Weather History for KGRD - December, 2013

Change the Weather History Date:

Monday, December 2, 2013

  Actual Average (KAND) Record (KAND)
Temperature  
Mean Temperature 48 °F -  
Max Temperature 61 °F 56 °F 76 °F (1991)
Min Temperature 35 °F 36 °F 18 °F (1960)
Degree Days  
Heating Degree Days 17    
Moisture  
Dew Point 40 °F    
Average Humidity 77    
Maximum Humidity 93    
Minimum Humidity 42    
Precipitation  
Precipitation 0.00 in - - ()
Sea Level Pressure  
Sea Level Pressure 29.92 in    
Wind  
Wind Speed 1 mph (WSW)    
Max Wind Speed 7 mph    
Max Gust Speed -    
Visibility 8 miles    
Events      
Averages and records for this station are not official NWS values.
T = Trace of Precipitation, MM = Missing Value Source: NWS Daily Summary

Daily Weather History Graph

Daily Weather History Graph

Search for Another Location

Airport or City:

Trip Planner

Search our weather history database for the weather conditions in past years. The results will help you decide how hot, cold, wet, or windy it might be!

Date:

Astronomy

Dec. 02, 2013 Rise Set
Actual Time 7:17 AM EST 5:18 PM EST
Civil Twilight 6:50 AM EST 5:46 PM EST
Nautical Twilight 6:19 AM EST 6:17 PM EST
Astronomical Twilight 5:48 AM EST 6:47 PM EST
Moon 6:42 AM EST (12/2) 5:19 PM EST (12/2)
Length of Visible Light 10h 56m
Length of Day
10h 01m
Waning Crescent, 0% of the Moon is Illuminated
Dec 2
Waning Crescent
Dec 2
New
Dec 9
First Quarter
Dec 17
Full
Dec 25
Last Quarter

Hourly Weather History & Observations

Time (EST) Temp. Windchill Dew Point Humidity Pressure Visibility Wind Dir Wind Speed Gust Speed Precip Events Conditions
12:56 AM 39.0 °F - 36.0 °F 89% 30.01 in 9.0 mi Calm Calm - N/A   Clear
1:56 AM 39.0 °F - 36.0 °F 89% 29.99 in 10.0 mi Calm Calm - N/A   Clear
2:56 AM 37.9 °F - 36.0 °F 93% 29.98 in 10.0 mi Calm Calm - N/A   Clear
3:56 AM 37.9 °F - 36.0 °F 93% 29.98 in 9.0 mi Calm Calm - N/A   Clear
4:56 AM 37.0 °F - 35.1 °F 93% 29.96 in 8.0 mi Calm Calm - N/A   Clear
5:56 AM 37.0 °F - 35.1 °F 93% 29.96 in 6.0 mi Calm Calm - N/A   Clear
6:46 AM 35.6 °F - 33.8 °F 93% 29.95 in 1.5 mi Calm Calm - N/A   Mostly Cloudy
6:56 AM 36.0 °F - 34.0 °F 93% 29.96 in 4.0 mi Calm Calm - N/A   Overcast
7:11 AM 37.4 °F - 35.6 °F 93% 29.95 in 2.0 mi Calm Calm - N/A   Overcast
7:21 AM 37.4 °F - 35.6 °F 93% 29.96 in 5.0 mi Calm Calm - N/A   Mostly Cloudy
7:56 AM 37.0 °F - 35.1 °F 93% 29.96 in 4.0 mi Calm Calm - N/A   Clear
8:56 AM 44.1 °F 40.8 °F 39.0 °F 82% 29.97 in 8.0 mi North 5.8 mph - N/A   Clear
9:56 AM 48.9 °F - 37.9 °F 66% 29.96 in 10.0 mi North 6.9 mph - N/A   Overcast
10:56 AM 52.0 °F - 37.9 °F 59% 29.94 in 10.0 mi Calm Calm - N/A   Overcast
11:56 AM 54.0 °F - 37.0 °F 53% 29.93 in 10.0 mi Calm Calm - N/A   Overcast
12:56 PM 59.0 °F - 36.0 °F 42% 29.89 in 10.0 mi Calm Calm - N/A   Partly Cloudy
1:56 PM 61.0 °F - 37.9 °F 42% 29.86 in 10.0 mi Variable 4.6 mph - N/A   Mostly Cloudy
2:56 PM 57.9 °F - 41.0 °F 53% 29.86 in 10.0 mi WSW 4.6 mph - N/A   Overcast
3:56 PM 57.9 °F - 41.0 °F 53% 29.84 in 10.0 mi Calm Calm - N/A   Clear
4:56 PM 57.0 °F - 44.1 °F 62% 29.85 in 10.0 mi Calm Calm - N/A   Overcast
5:56 PM 54.0 °F - 46.0 °F 75% 29.86 in 10.0 mi Calm Calm - N/A   Overcast
6:56 PM 52.0 °F - 44.1 °F 74% 29.86 in 10.0 mi SSE 3.5 mph - N/A   Overcast
7:56 PM 53.1 °F - 45.0 °F 74% 29.88 in 10.0 mi Calm Calm - N/A   Overcast
8:31 PM 51.8 °F - 46.4 °F 82% 29.88 in 10.0 mi SSW 4.6 mph - N/A   Overcast
8:56 PM 53.1 °F - 46.0 °F 77% 29.88 in 10.0 mi Calm Calm - N/A   Overcast
9:56 PM 53.1 °F - 46.9 °F 80% 29.89 in 10.0 mi Calm Calm - N/A   Overcast
10:56 PM 52.0 °F - 46.9 °F 83% 29.89 in 10.0 mi Calm Calm - N/A   Overcast
11:56 PM 51.1 °F - 48.0 °F 89% 29.89 in 10.0 mi Calm Calm - 0.00 in   Overcast